Classements 2018

Scratch Copines Entreprises Mère - Filles Maman Grand maman

Les résultats « Maman »

Place Dossard Nom Équipe Temp individuel
101 6 894 Sophie Lecoq
00:35:59
102 51 896 Laetitia Lavazay BRICO MARCHÉ 00:35:59
103 53 518 Millie Carpenter WENDEL SE 00:36:04
104 33 438 Christelle Robin LA POSTE COGAS 00:36:10
105 51 828 Audrey Gicquel ROTHSCHILD & CIE 00:36:11
106 9 522 Cindy Moreno LES MORENOS 00:36:13
107 27 761 Elodie Le Gall LA BOULANGÈRE 00:36:14
108 51 927 Cecile Vanaerdewegh UNIVERSITE PARIS EST MARNE-LA- 00:36:14
109 2 910 Nelly Tauzin TEAM DUNOIS 00:36:20
110 30 755 Linda Serviere GROUPE GROUPAMA 00:36:20
111 51 834 Catherine Culty ROTHSCHILD & CIE 00:36:26
112 27 877 Malia Hape GSBDD PEM 00:36:27
113 51 801 Soli-al Benoudjita ROTHSCHILD & CIE 00:36:31
114 11 063 Chantal Ravelojaona
00:36:31
115 11 296 Virginie Seguin
00:36:31
116 559 Anne Bure Emmel
00:36:33
117 31 614 Gaele Saint-martin LAGARDÈRE 00:36:33
118 30 956 Delphine Landry GROUPE GROUPAMA 00:36:34
119 31 378 Auriane Nirascou CHAUFFEUR PRIVÉ 00:36:35
120 33 790 Karine Boulais HMN & PARTNERS 00:36:35
121 22 441 Marie-pierre Aubert CENTRE D'ACTION SOCIALE DE LA 00:36:36
122 30 854 Aurelie Picquot GROUPE GROUPAMA 00:36:39
123 28 287 Carole Thomas IMMOBILIÈRE 3F 00:36:39
124 22 369 Marie-charlotte Brun FONDATION POUR LA RECHERCHE MÉ 00:36:42
125 52 435 Olivia Anselem MATERNITÉ PORT ROYAL - HÔPITAL 00:36:42
126 30 673 Mathilde Michel GROUPE GROUPAMA 00:36:43
127 53 445 Yael Poncon LA PLATEFORME DU BATIMENT 00:36:43
128 30 983 Latifa Merimi AIR LIQUIDE 00:36:43
129 29 573 Myriam Vincent FLOWBIRD 00:36:43
130 22 082 Nathalie Caffa MAIRIE DE PARIS 00:36:44
131 30 908 Magali Poles GROUPE GROUPAMA 00:36:48
132 3 077 Florence Roux PARISPHARMA 00:36:50
133 52 000 Marie-noelle Lamy ISAMBERT 00:36:53
134 32 528 Valérie Sebbah ENTRE METS ET FRAGRANCES 00:36:54
135 31 026 Anne Yiu AIR LIQUIDE 00:36:54
136 31 110 Anne Giraud EDF LES ETINCELLES 00:36:56
137 52 122 Marina Zuber TBWA GROUPE 00:36:56
138 6 905 Fatima Zahra Bouchiba
00:36:58
139 3 132 Ophélie Charlier ENSEMBLE POUR ELLES 00:37:00
140 50 532 Delphine Frobert FAURECIA 00:37:00
141 4 996 Sophie Savariau SENEGAZELLE 00:37:01
142 51 058 Sandrine Collard GEDEX 00:37:01
143 35 965 Stéphanie Lalue CARREFOUR 00:37:02
144 8 969 Rania Bibiloni
00:37:03
145 29 252 Sylvie Rengard ORACLE 00:37:05
146 32 289 Stephanie Kaczmarek VINCI ENERGIES 00:37:05
147 51 714 Adeline Durand BOLLORE 00:37:06
148 4 056 Anne Ratto-gendre ANNE RATTO-GENDRE 00:37:07
149 2 363 Louise Agerman Filliette LES RENNES SUEDOISES 00:37:08
150 6 657 Regine Michali TEAM WARRIORETTES 00:37:08